Regional Weather Roundup
Issued by NWS Lake Charles, LA

Home | Current Version | Previous Version | Text Only | Print | Product List | Glossary On
Versions: 1 2 3 4 5 6 7 8 9 10 11 12 13 14 15 16 17 18 19 20 21 22 23 24 25 26 27 28 29 30 31 32 33 34 35 36 37 38 39 40 41 42 43 44 45 46 47 48 49 50
000
ASUS44 KLCH 311010
RWRLCH
RWRLCH
REGIONAL WEATHER ROUNDUP
NATIONAL WEATHER SERVICE LAKE CHARLES LA
500 AM CDT THU JUL 31 2014

Note: "fair" indicates few or no clouds below 12,000 feet with no
significant weather and/or obstructions to visibility.


ACROSS SOUTHEAST TEXAS

CITY           SKY/WX    TMP DP  RH WIND       PRES   REMARKS
BEAUMONT       PTCLDY    77  72  84 S5        29.96S
BEAUMONT CITY    N/A     74  73  96 CALM      29.97S
ORANGE         MOSUNNY   74  74 100 CALM      29.98S
JASPER         MOCLDY    70  65  86 CALM      30.02R
$$

ACROSS CENTRAL LOUISIANA

CITY           SKY/WX    TMP DP  RH WIND       PRES   REMARKS
LEESVILLE      MOCLDY    73  63  70 SE5       30.00S
FULLERTON        N/A     71  66  84 CALM      29.99R
ALEXANDRIA INT MOCLDY    71  65  81 NE5       30.00R
ESLER FIELD    MOCLDY    71  67  87 CALM      30.01R
DERIDDER         N/A     71  64  78 CALM      30.01S
OAKDALE        PTSUNNY   69  67  93 CALM      30.00R
OPELOUSAS        N/A     70  67  90 CALM      29.99S
$$

ACROSS SOUTHWEST AND SOUTH CENTRAL LOUISIANA

CITY           SKY/WX    TMP DP  RH WIND       PRES   REMARKS
SULPHUR        PTSUNNY   74  68  81 CALM      29.98S
LAKE CHARLES   MOCLDY    73  68  84 NE5       29.98S
CHENNAULT INT  NOT AVBL
CAMERON PHI    MOSUNNY   77  70  78 E6        29.97F
DEQUINCY         N/A     71  65  82 CALM      29.99S
JENNINGS         N/A     72  67  87 CALM      29.98S
LAFAYETTE      PTCLDY    71  67  87 NE3       29.99S
NEW IBERIA     CLEAR     71  66  84 CALM      29.99F
ABBEVILLE        N/A     68  67  96 CALM      29.98S
PATTERSON      CLEAR     70  66  88 NE3       30.02R
SALT POINT       N/A     75  70  84 CALM      29.97S
$$

SELECTED SITES ACROSS THE REGION

CITY           SKY/WX    TMP DP  RH WIND       PRES   REMARKS
HOUSTON BUSH   MOCLDY    80  74  81 S3        29.95S
HOUSTON HOBBY  MOCLDY    80  74  81 S3        29.95S
GALVESTON      MOCLDY    83  76  79 S12       29.95F
COLLEGE STAT   PTCLDY    77  73  87 S7        29.95S
CONROE         MOCLDY    74  73  97 CALM      29.97S
HUNTSVILLE     PTCLDY    78  73  84 S5        29.97R
LUFKIN         MOCLDY    75  67  76 NE5       30.01R
SHREVEPORT     LGT RAIN  72  65  78 SE8       30.01S
MONROE         CLOUDY    71  66  84 NE5       30.06R
NATCHEZ MS     CLOUDY    72  61  68 CALM      30.03R
BATON ROUGE    MOCLDY    70  64  81 CALM      30.00R
N.O. INTL ARPT PTCLDY    72  64  76 CALM      29.99R
SLIDELL        CLEAR     66  63  90 N5        29.99S
$$

MARINE REPORTS

STATION/POSITION TIME  TEMP    WIND        PRES    VSBY  WAVE
                       AIR SEA DIR/SP/G                  HT/PER
                 (UTC) (F)     (DEG/KT/KT) (MB)    (MI)  (FT/S)
BUOY 30 S HIGH I NOT AVBL
SEA RIM ST PARK  1000   83     160/ 10/ 13 1015.1S
PORT ARTHUR      1000      87  170/  3/  6 1014.6S
SABINE PASS N    1000   81 86  180/  6/  8 1014.7R
TEXAS POINT      1000   83 86  180/ 10/ 12 1014.8R
CALCASIEU PASS   1000   78 87  110/  5/  6 1015.6F
LK CHARLES BEACH 1000   75 85              1015.8S
MARSH ISLAND     0900   82     140/ 11/ 13   N/A
FRESH WATER LOCK 1000   79 87   90/  2/  4 1014.8S
AMERADA PASS     1000   75 83   80/  4/  5 1014.9R
$$


USA.gov is the U.S. government's official web portal to all federal, state and local government web resources and services.